^^
Saratoga-Weather Station Historical Data
Daily Summary for May 27, 2020 Units:  English    Metric   Both
Daily Weekly Monthly Yearly Custom
  High: Low: Average:
Temperature: 79.3 °F 52 °F 64.6 °F
Dew Point: 57 °F 48.9 °F 52.5 °F
Humidity: 92% 35% 68%
Wind Speed: 6.9mph 0mph 1.1mph
Wind Gust: 9mph - -
Wind- - South
Pressure: 30.1 in 29.7 in -
Precipitation: 0 in    
Historical Graphs
 
 
Tabular Data for May 27, 2020
Time Temperature Dew Point Pressure Wind Wind Speed Wind Gust Humidity Rainfall Rate (Hourly) solar
00:01 62.6 °F 52.7 °F 30.1 in West 2.9 mph 4 mph 70% 0 in 0 W/m2
00:06 62.4 °F 52.5 °F 30.1 in West 2 mph 3 mph 70% 0 in 0 W/m2
00:11 62.4 °F 52.5 °F 30.1 in WNW 0.9 mph 2 mph 70% 0 in 0 W/m2
00:16 62.4 °F 52.5 °F 30.1 in West 2.9 mph 5 mph 70% 0 in 0 W/m2
00:21 62.2 °F 52.3 °F 30.1 in West 0.9 mph 2 mph 70% 0 in 0 W/m2
00:26 62.2 °F 52.3 °F 30.1 in WSW 2 mph 5 mph 70% 0 in 0 W/m2
00:31 62.1 °F 52.2 °F 30.1 in West 2 mph 4 mph 70% 0 in 0 W/m2
00:36 62.1 °F 52.5 °F 30.1 in West 0.9 mph 3 mph 71% 0 in 0 W/m2
00:41 61.9 °F 52.3 °F 30.1 in WSW 2 mph 3 mph 71% 0 in 0 W/m2
00:46 61.9 °F 52.3 °F 30.1 in West 2.9 mph 3 mph 71% 0 in 0 W/m2
00:51 61.9 °F 52.3 °F 30.1 in Calm   3 mph 71% 0 in 0 W/m2
00:56 61.7 °F 52.2 °F 30.1 in West 0.9 mph 3 mph 71% 0 in 0 W/m2
01:01 61.5 °F 52 °F 30.1 in West 2.9 mph 4 mph 71% 0 in 0 W/m2
01:06 61.5 °F 52 °F 30.1 in West 2.9 mph 3 mph 71% 0 in 0 W/m2
01:11 61.5 °F 52 °F 30.1 in WNW 2 mph 3 mph 71% 0 in 0 W/m2
01:16 61.3 °F 51.8 °F 30.1 in West 2 mph 2 mph 71% 0 in 0 W/m2
01:21 61.2 °F 51.6 °F 30.1 in West 0.9 mph 4 mph 71% 0 in 0 W/m2
01:26 61.2 °F 51.6 °F 30.1 in Calm   2 mph 71% 0 in 0 W/m2
01:31 61 °F 52 °F 30.1 in Calm     72% 0 in 0 W/m2
01:36 60.6 °F 51.6 °F 30.1 in Calm     72% 0 in 0 W/m2
01:41 60.4 °F 51.8 °F 30.1 in Calm     73% 0 in 0 W/m2
01:46 60.1 °F 51.4 °F 30.1 in Calm     73% 0 in 0 W/m2
01:51 59.5 °F 51.3 °F 30.1 in Calm     74% 0 in 0 W/m2
01:56 59 °F 51.1 °F 30.1 in Calm     75% 0 in 0 W/m2
02:01 58.6 °F 51.1 °F 30.1 in Calm     76% 0 in 0 W/m2
02:06 58.1 °F 50.9 °F 30.1 in Calm     77% 0 in 0 W/m2
02:11 57.7 °F 50.9 °F 30.1 in Calm     78% 0 in 0 W/m2
02:16 57.4 °F 50.9 °F 30.1 in Calm     79% 0 in 0 W/m2
02:21 57 °F 50.9 °F 30.1 in Calm     80% 0 in 0 W/m2
02:26 56.7 °F 50.9 °F 30.1 in Calm     81% 0 in 0 W/m2
02:31 56.5 °F 50.7 °F 30.1 in Calm     81% 0 in 0 W/m2
02:36 56.3 °F 50.9 °F 30.1 in Calm     82% 0 in 0 W/m2
02:42 56.1 °F 50.7 °F 30.1 in Calm     82% 0 in 0 W/m2
02:47 55.9 °F 50.5 °F 30.1 in Calm     82% 0 in 0 W/m2
02:52 55.8 °F 50.7 °F 30.1 in Calm     83% 0 in 0 W/m2
02:57 55.6 °F 50.9 °F 30.1 in Calm     84% 0 in 0 W/m2
03:02 55.4 °F 50.7 °F 30.1 in Calm     84% 0 in 0 W/m2
03:07 55.2 °F 50.7 °F 30.1 in Calm     85% 0 in 0 W/m2
03:12 55.2 °F 50.7 °F 30.1 in Calm     85% 0 in 0 W/m2
03:17 55.2 °F 50.7 °F 30.1 in Calm     85% 0 in 0 W/m2
03:22 55 °F 50.5 °F 30.1 in Calm     85% 0 in 0 W/m2
03:27 55 °F 50.5 °F 30.1 in Calm     85% 0 in 0 W/m2
03:32 54.9 °F 50.7 °F 30.1 in Calm     86% 0 in 0 W/m2
03:37 54.9 °F 50.7 °F 30.1 in Calm     86% 0 in 0 W/m2
03:42 54.7 °F 50.5 °F 30.1 in Calm     86% 0 in 0 W/m2
03:47 54.5 °F 50.4 °F 30.1 in Calm     86% 0 in 0 W/m2
03:52 54.3 °F 50.5 °F 30.1 in Calm     87% 0 in 0 W/m2
03:57 54.3 °F 50.5 °F 30.1 in Calm     87% 0 in 0 W/m2
04:02 54.1 °F 50.4 °F 30.1 in Calm     87% 0 in 0 W/m2
04:07 54.1 °F 50.7 °F 30.1 in Calm     88% 0 in 0 W/m2
04:12 54 °F 50.2 °F 30.1 in Calm     87% 0 in 0 W/m2
04:17 54 °F 50.5 °F 30.1 in Calm     88% 0 in 0 W/m2
04:22 53.8 °F 50.4 °F 30.1 in Calm     88% 0 in 0 W/m2
04:27 53.6 °F 50.2 °F 30.1 in Calm     88% 0 in 0 W/m2
04:32 53.4 °F 50 °F 30.1 in Calm     88% 0 in 0 W/m2
04:37 53.4 °F 50 °F 30.1 in Calm     88% 0 in 0 W/m2
04:42 53.2 °F 49.8 °F 30.1 in Calm     88% 0 in 0 W/m2
04:47 53.2 °F 50 °F 30.1 in Calm     89% 0 in 0 W/m2
04:52 53.1 °F 49.8 °F 30.1 in Calm     89% 0 in 0 W/m2
04:57 53.1 °F 49.8 °F 30 in Calm     89% 0 in 0 W/m2
05:02 52.9 °F 50 °F 30 in Calm     90% 0 in 0 W/m2
05:07 52.9 °F 50 °F 30 in Calm     90% 0 in 0 W/m2
05:12 52.7 °F 49.8 °F 30 in Calm     90% 0 in 0 W/m2
05:17 52.5 °F 49.6 °F 30 in Calm     90% 0 in 0 W/m2
05:22 52.3 °F 49.5 °F 30 in Calm     90% 0 in 0 W/m2
05:27 52.3 °F 49.5 °F 30 in Calm     90% 0 in 0 W/m2
05:32 52.2 °F 49.3 °F 30 in Calm     90% 0 in 0 W/m2
05:37 52.2 °F 49.3 °F 30 in Calm     90% 0 in 0 W/m2
05:42 52.2 °F 49.6 °F 30 in Calm     91% 0 in 0 W/m2
05:47 52 °F 49.5 °F 30 in Calm     91% 0 in 0 W/m2
05:52 52 °F 49.5 °F 30 in Calm     91% 0 in 0 W/m2
05:57 52 °F 49.5 °F 30 in Calm     91% 0 in 0 W/m2
06:02 52 °F 49.5 °F 30 in Calm     91% 0 in 0 W/m2
06:07 52 °F 49.5 °F 30 in Calm     91% 0 in 0 W/m2
06:12 52 °F 49.6 °F 30 in Calm     92% 0 in 0 W/m2
06:17 52 °F 49.6 °F 30 in Calm     92% 0 in 0 W/m2
06:22 52.2 °F 49.8 °F 30 in Calm     92% 0 in 0 W/m2
06:27 52.2 °F 49.8 °F 30 in Calm     92% 0 in 0 W/m2
06:32 52.2 °F 49.8 °F 30 in Calm     92% 0 in 0 W/m2
06:37 52.2 °F 49.8 °F 30 in Calm     92% 0 in 0 W/m2
06:42 52.2 °F 49.8 °F 30 in Calm     92% 0 in 0 W/m2
06:47 52.3 °F 50 °F 30 in Calm     92% 0 in 5 W/m2
06:52 52.5 °F 50.2 °F 30 in West 0.9 mph 1 mph 92% 0 in 5 W/m2
06:57 52.7 °F 50.2 °F 30 in Calm     91% 0 in 9 W/m2
07:02 52.9 °F 50.4 °F 30 in Calm   1 mph 91% 0 in 12 W/m2
07:07 53.1 °F 50.5 °F 30 in Calm     91% 0 in 21 W/m2
07:12 53.1 °F 50.5 °F 30 in Calm   1 mph 91% 0 in 23 W/m2
07:17 53.2 °F 50.7 °F 30 in Calm     91% 0 in 37 W/m2
07:22 53.2 °F 50.7 °F 30 in Calm   1 mph 91% 0 in 46 W/m2
07:27 53.6 °F 51.1 °F 30.1 in Calm   1 mph 91% 0 in 49 W/m2
07:32 54 °F 51.1 °F 30.1 in NW 0.9 mph 3 mph 90% 0 in 53 W/m2
07:37 54.3 °F 51.4 °F 30.1 in NW 0.9 mph 2 mph 90% 0 in 53 W/m2
07:42 54.7 °F 51.4 °F 30 in Calm     89% 0 in 60 W/m2
07:47 54.9 °F 51.4 °F 30 in Calm   1 mph 88% 0 in 60 W/m2
07:52 55 °F 51.6 °F 30.1 in Calm     88% 0 in 72 W/m2
07:57 55.2 °F 51.8 °F 30.1 in Calm   2 mph 88% 0 in 81 W/m2
08:02 55.4 °F 51.6 °F 30 in Calm     87% 0 in 104 W/m2
08:07 55.6 °F 51.8 °F 30 in Calm   1 mph 87% 0 in 102 W/m2
08:12 55.8 °F 52 °F 30 in Calm     87% 0 in 90 W/m2
08:17 56.1 °F 52 °F 30 in Calm   1 mph 86% 0 in 81 W/m2
08:22 56.3 °F 52.2 °F 30 in Calm     86% 0 in 81 W/m2
08:27 56.5 °F 52.3 °F 30.1 in Calm   2 mph 86% 0 in 86 W/m2
08:32 56.7 °F 52.2 °F 30 in ENE 0.9 mph 3 mph 85% 0 in 95 W/m2
08:37 56.8 °F 52.3 °F 30 in NE 0.9 mph 2 mph 85% 0 in 120 W/m2
08:42 57 °F 52.5 °F 30 in NE 2 mph 2 mph 85% 0 in 167 W/m2
08:48 57.4 °F 52.5 °F 30 in NE 2 mph 3 mph 84% 0 in 156 W/m2
08:53 57.6 °F 52.7 °F 30 in ENE 2 mph 2 mph 84% 0 in 165 W/m2
08:58 57.7 °F 52.9 °F 30 in ENE 0.9 mph 2 mph 84% 0 in 139 W/m2
09:03 57.9 °F 52.7 °F 30 in East 0.9 mph 1 mph 83% 0 in 155 W/m2
09:08 58.1 °F 52.9 °F 30 in Calm   1 mph 83% 0 in 149 W/m2
09:13 58.3 °F 53.1 °F 30 in ESE 2 mph 2 mph 83% 0 in 123 W/m2
09:18 58.5 °F 53.1 °F 30 in NNE 0.9 mph 2 mph 82% 0 in 141 W/m2
09:23 58.6 °F 53.2 °F 30 in ESE 0.9 mph 2 mph 82% 0 in 174 W/m2
09:28 58.8 °F 53.4 °F 30 in ENE 2 mph 3 mph 82% 0 in 172 W/m2
09:33 58.8 °F 53.1 °F 30 in Calm   1 mph 81% 0 in 232 W/m2
09:38 59.4 °F 53.8 °F 30 in ENE 2 mph 4 mph 82% 0 in 285 W/m2
09:43 59.7 °F 54 °F 30 in NE 2 mph 4 mph 81% 0 in 343 W/m2
09:48 60.1 °F 54 °F 30 in Calm   1 mph 80% 0 in 239 W/m2
09:53 60.3 °F 54.1 °F 30 in Calm   1 mph 80% 0 in 306 W/m2
09:58 60.6 °F 54.1 °F 30 in NNE 0.9 mph 2 mph 79% 0 in 318 W/m2
10:03 61 °F 54.5 °F 30 in ENE 0.9 mph 1 mph 79% 0 in 165 W/m2
10:08 61.2 °F 54.7 °F 30 in Calm   2 mph 79% 0 in 144 W/m2
10:13 61.2 °F 54.3 °F 30 in Calm   2 mph 78% 0 in 123 W/m2
10:18 61.3 °F 54.5 °F 30 in ENE 0.9 mph 2 mph 78% 0 in 141 W/m2
10:23 61.3 °F 54.5 °F 30 in Calm   3 mph 78% 0 in 153 W/m2
10:28 61.3 °F 54.5 °F 30 in ENE 4 mph 4 mph 78% 0 in 160 W/m2
10:33 61.3 °F 54.5 °F 30 in Calm   2 mph 78% 0 in 153 W/m2
10:38 61.5 °F 54.3 °F 30 in Calm   4 mph 77% 0 in 162 W/m2
10:43 61.5 °F 54.3 °F 30 in North 0.9 mph 2 mph 77% 0 in 165 W/m2
10:48 61.7 °F 54.5 °F 30 in NE 2.9 mph 3 mph 77% 0 in 156 W/m2
10:53 61.9 °F 54.7 °F 30 in Calm   2 mph 77% 0 in 160 W/m2
10:58 61.9 °F 54.7 °F 30 in Calm   1 mph 77% 0 in 197 W/m2
11:04 62.2 °F 54.9 °F 30 in NE 0.9 mph 2 mph 77% 0 in 185 W/m2
11:09 62.2 °F 54.5 °F 30 in East 2 mph 3 mph 76% 0 in 190 W/m2
11:14 62.4 °F 54.7 °F 30 in Calm   2 mph 76% 0 in 221 W/m2
11:19 62.6 °F 54.5 °F 30 in SE 2 mph 3 mph 75% 0 in 207 W/m2
11:24 62.8 °F 54.7 °F 30 in ENE 2 mph 3 mph 75% 0 in 264 W/m2
11:29 63 °F 54.9 °F 30 in ESE 2 mph 3 mph 75% 0 in 311 W/m2
11:34 63.1 °F 54.7 °F 30 in Calm   4 mph 74% 0 in 223 W/m2
11:39 63.3 °F 54.9 °F 30 in NE 2 mph 2 mph 74% 0 in 162 W/m2
11:44 63.7 °F 54.9 °F 30 in East 0.9 mph 3 mph 73% 0 in 163 W/m2
11:49 63.7 °F 54.9 °F 30 in East 2 mph 3 mph 73% 0 in 181 W/m2
11:54 63.7 °F 54.9 °F 30 in East 0.9 mph 1 mph 73% 0 in 172 W/m2
11:59 63.9 °F 55 °F 30 in East 0.9 mph 3 mph 73% 0 in 207 W/m2
12:04 64 °F 55.2 °F 30 in Calm   2 mph 73% 0 in 323 W/m2
12:09 64.4 °F 55.2 °F 30 in NNW 0.9 mph 2 mph 72% 0 in 573 W/m2
12:14 64.9 °F 55.8 °F 30 in ENE 0.9 mph 1 mph 72% 0 in 330 W/m2
12:19 65.5 °F 55.8 °F 30 in Calm   3 mph 71% 0 in 248 W/m2
12:24 65.8 °F 55.4 °F 30 in NE 2 mph 3 mph 69% 0 in 302 W/m2
12:29 66.4 °F 55.9 °F 30 in NE 0.9 mph 3 mph 69% 0 in 287 W/m2
12:35 66.6 °F 55.2 °F 30 in ENE 2 mph 2 mph 67% 0 in 281 W/m2
12:40 66.7 °F 55 °F 30 in East 4 mph 4 mph 66% 0 in 350 W/m2
12:45 66.7 °F 55 °F 30 in East 2.9 mph 6 mph 66% 0 in 438 W/m2
12:50 67.3 °F 55 °F 30 in East 4 mph 4 mph 65% 0 in 431 W/m2
12:55 67.6 °F 55 °F 30 in East 2.9 mph 5 mph 64% 0 in 570 W/m2
13:00 68.2 °F 55 °F 30 in ESE 4 mph 4 mph 63% 0 in 689 W/m2
13:05 68.7 °F 55.6 °F 30 in East 4.9 mph 5 mph 63% 0 in 775 W/m2
13:15 70 °F 55.9 °F 30 in ENE 2.9 mph 4 mph 61% 0 in 763 W/m2
13:20 70.3 °F 56.3 °F 30 in West 0.9 mph 2 mph 61% 0 in 765 W/m2
13:25 70.7 °F 55.6 °F 30 in Calm   3 mph 59% 0 in 770 W/m2
13:30 70.9 °F 55.4 °F 30 in SE 2.9 mph 7 mph 58% 0 in 803 W/m2
13:35 71.2 °F 55.8 °F 30 in East 2.9 mph 8 mph 58% 0 in 838 W/m2
13:40 71.4 °F 55.9 °F 30 in NE 4 mph 6 mph 58% 0 in 907 W/m2
13:45 71.4 °F 55.4 °F 30 in East 0.9 mph 6 mph 57% 0 in 223 W/m2
13:50 71.4 °F 55.9 °F 30 in East 2.9 mph 9 mph 58% 0 in 244 W/m2
13:55 71.1 °F 55 °F 30 in NNW 2 mph 4 mph 57% 0 in 258 W/m2
14:00 70.9 °F 55.4 °F 30 in NNW 2 mph 2 mph 58% 0 in 956 W/m2
14:05 71.2 °F 55.8 °F 30 in NW 2.9 mph 3 mph 58% 0 in 935 W/m2
14:10 71.8 °F 54.7 °F 30 in Calm   3 mph 55% 0 in 316 W/m2
14:15 71.8 °F 54.7 °F 30 in NNE 2 mph 5 mph 55% 0 in 802 W/m2
14:20 72.7 °F 55.6 °F 30 in East 2.9 mph 9 mph 55% 0 in 900 W/m2
14:25 73 °F 55.4 °F 30 in WSW 0.9 mph 5 mph 54% 0 in 229 W/m2
14:30 73.4 °F 56.3 °F 29.9 in NNW 6 mph 9 mph 55% 0 in 438 W/m2
14:35 73.8 °F 55.6 °F 29.9 in East 0.9 mph 8 mph 53% 0 in 216 W/m2
14:40 73.2 °F 54.5 °F 29.9 in East 2 mph 6 mph 52% 0 in 229 W/m2
14:45 72.7 °F 54.5 °F 29.9 in NNE 0.9 mph 3 mph 53% 0 in 169 W/m2
14:50 72.3 °F 54.7 °F 29.9 in ENE 2 mph 3 mph 54% 0 in 176 W/m2
14:55 72.3 °F 54.1 °F 29.9 in ENE 2 mph 4 mph 53% 0 in 214 W/m2
15:00 72.7 °F 55 °F 29.9 in NW 2 mph 3 mph 54% 0 in 846 W/m2
15:05 72.7 °F 53.4 °F 29.9 in Calm   2 mph 51% 0 in 188 W/m2
15:10 72.7 °F 54 °F 29.9 in WNW 0.9 mph 3 mph 52% 0 in 221 W/m2
15:15 72.9 °F 54.7 °F 29.9 in East 2 mph 3 mph 53% 0 in 174 W/m2
15:20 73 °F 54.3 °F 29.9 in ESE 0.9 mph 2 mph 52% 0 in 796 W/m2
15:25 73.8 °F 54 °F 29.9 in ENE 4 mph 5 mph 50% 0 in 809 W/m2
15:30 74.5 °F 55.2 °F 29.9 in Calm   2 mph 51% 0 in 148 W/m2
15:35 74.8 °F 52.7 °F 29.9 in NE 4 mph 9 mph 46% 0 in 758 W/m2
15:40 74.8 °F 53.8 °F 29.9 in WNW 4.9 mph 5 mph 48% 0 in 780 W/m2
15:45 74.8 °F 52.2 °F 29.9 in West 0.9 mph 7 mph 45% 0 in 740 W/m2
15:50 74.8 °F 52.2 °F 29.9 in East 2.9 mph 4 mph 45% 0 in 729 W/m2
15:55 75.4 °F 52.5 °F 29.9 in WNW 2 mph 6 mph 45% 0 in 710 W/m2
16:00 75.9 °F 52.5 °F 29.9 in WNW 2.9 mph 7 mph 44% 0 in 677 W/m2
16:05 75.9 °F 51.8 °F 29.9 in ESE 6.9 mph 9 mph 43% 0 in 663 W/m2
16:11 75.9 °F 51.8 °F 29.9 in ESE 2 mph 4 mph 43% 0 in 654 W/m2
16:16 76.5 °F 53.6 °F 29.9 in WNW 6 mph 6 mph 45% 0 in 638 W/m2
16:21 76.6 °F 52.5 °F 29.9 in North 0.9 mph 4 mph 43% 0 in 626 W/m2
16:26 76.6 °F 51.8 °F 29.9 in SSW 2 mph 2 mph 42% 0 in 613 W/m2
16:31 77 °F 52.2 °F 29.9 in East 4.9 mph 9 mph 42% 0 in 582 W/m2
16:36 76.8 °F 52.7 °F 29.9 in West 2.9 mph 5 mph 43% 0 in 585 W/m2
16:41 77.2 °F 52.9 °F 29.9 in Calm   9 mph 43% 0 in 571 W/m2
16:46 77.7 °F 53.4 °F 29.9 in ESE 6.9 mph 8 mph 43% 0 in 563 W/m2
16:51 77.7 °F 52.9 °F 29.9 in East 2.9 mph 8 mph 42% 0 in 559 W/m2
16:56 77.2 °F 52.3 °F 29.9 in NW 2 mph 2 mph 42% 0 in 531 W/m2
17:01 77.2 °F 52.9 °F 29.9 in ENE 2 mph 3 mph 43% 0 in 522 W/m2
17:06 77.7 °F 52.9 °F 29.9 in Calm   1 mph 42% 0 in 508 W/m2
17:11 78.3 °F 52.7 °F 29.9 in NW 6.9 mph 9 mph 41% 0 in 492 W/m2
17:16 78.4 °F 52.7 °F 29.9 in ENE 0.9 mph 3 mph 41% 0 in 482 W/m2
17:21 78.6 °F 51.6 °F 29.9 in WNW 4 mph 5 mph 39% 0 in 476 W/m2
17:26 78.4 °F 52.2 °F 29.9 in SE 0.9 mph 5 mph 40% 0 in 457 W/m2
17:31 78.6 °F 52.3 °F 29.9 in East 0.9 mph 4 mph 40% 0 in 448 W/m2
17:36 78.4 °F 52.2 °F 29.9 in West 2 mph 4 mph 40% 0 in 431 W/m2
17:41 79 °F 52.5 °F 29.9 in North 0.9 mph 4 mph 40% 0 in 415 W/m2
17:46 79 °F 50.5 °F 29.9 in West 2.9 mph 7 mph 37% 0 in 403 W/m2
17:51 79 °F 51.3 °F 29.9 in Calm   2 mph 38% 0 in 392 W/m2
17:56 79.3 °F 50 °F 29.9 in West 4 mph 4 mph 36% 0 in 380 W/m2
18:01 79.2 °F 49.8 °F 29.9 in WSW 2 mph 3 mph 36% 0 in 364 W/m2
18:06 79 °F 48.9 °F 29.8 in NW 2 mph 5 mph 35% 0 in 346 W/m2
18:11 79 °F 48.9 °F 29.8 in WNW 4 mph 5 mph 35% 0 in 334 W/m2
18:16 78.6 °F 49.5 °F 29.8 in WSW 2 mph 3 mph 36% 0 in 322 W/m2
18:21 79 °F 49.8 °F 29.8 in West 2.9 mph 8 mph 36% 0 in 306 W/m2
18:26 79.2 °F 49.1 °F 29.8 in NNW 2 mph 3 mph 35% 0 in 297 W/m2
18:31 79.3 °F 49.3 °F 29.8 in WSW 2.9 mph 8 mph 35% 0 in 279 W/m2
18:36 79.2 °F 49.1 °F 29.8 in ENE 2 mph 5 mph 35% 0 in 264 W/m2
18:41 78.8 °F 49.6 °F 29.8 in WSW 0.9 mph 3 mph 36% 0 in 253 W/m2
18:46 78.6 °F 49.5 °F 29.8 in West 4 mph 4 mph 36% 0 in 244 W/m2
18:51 78.4 °F 50 °F 29.8 in Calm   3 mph 37% 0 in 246 W/m2
18:57 78.1 °F 49.6 °F 29.8 in NW 0.9 mph 4 mph 37% 0 in 83 W/m2
19:02 77.5 °F 50 °F 29.8 in WNW 0.9 mph 4 mph 38% 0 in 109 W/m2
19:07 77.4 °F 49.8 °F 29.8 in NW 0.9 mph 3 mph 38% 0 in 250 W/m2
19:12 77.2 °F 51.1 °F 29.8 in West 0.9 mph 4 mph 40% 0 in 95 W/m2
19:17 76.8 °F 50.7 °F 29.8 in Calm   1 mph 40% 0 in 56 W/m2
19:22 76.6 °F 50.5 °F 29.8 in NW 2 mph 4 mph 40% 0 in 56 W/m2
19:27 76.3 °F 51.4 °F 29.8 in NE 0.9 mph 2 mph 42% 0 in 97 W/m2
19:32 75.9 °F 51.8 °F 29.8 in Calm   4 mph 43% 0 in 102 W/m2
19:37 75.7 °F 51.1 °F 29.8 in Calm   1 mph 42% 0 in 47 W/m2
19:42 75.4 °F 51.3 °F 29.8 in NNW 0.9 mph 2 mph 43% 0 in 33 W/m2
19:47 75 °F 52.9 °F 29.8 in SSE 4 mph 4 mph 46% 0 in 18 W/m2
19:52 74.5 °F 51.1 °F 29.8 in Calm   2 mph 44% 0 in 14 W/m2
19:57 73.9 °F 53.1 °F 29.8 in Calm   1 mph 48% 0 in 12 W/m2
20:02 73 °F 52.7 °F 29.8 in Calm   1 mph 49% 0 in 11 W/m2
20:07 72.3 °F 53.2 °F 29.8 in Calm     51% 0 in 9 W/m2
20:12 71.8 °F 53.2 °F 29.8 in WSW 2 mph 2 mph 52% 0 in 7 W/m2
20:17 71.1 °F 53.1 °F 29.8 in Calm   1 mph 53% 0 in 5 W/m2
20:22 70.3 °F 52.9 °F 29.8 in Calm   2 mph 54% 0 in 5 W/m2
20:27 69.6 °F 52.7 °F 29.8 in Calm     55% 0 in 0 W/m2
20:32 69.1 °F 51.8 °F 29.8 in Calm   3 mph 54% 0 in 0 W/m2
20:37 68.5 °F 52.7 °F 29.8 in Calm     57% 0 in 0 W/m2
20:42 68.2 °F 52.3 °F 29.8 in Calm   3 mph 57% 0 in 0 W/m2
20:47 67.6 °F 52.3 °F 29.8 in Calm     58% 0 in 0 W/m2
20:52 67.3 °F 52.5 °F 29.8 in Calm     59% 0 in 0 W/m2
20:57 66.7 °F 52 °F 29.8 in Calm     59% 0 in 0 W/m2
21:02 66.6 °F 52.2 °F 29.8 in SW 0.9 mph 1 mph 60% 0 in 0 W/m2
21:07 66.4 °F 52.5 °F 29.8 in Calm   2 mph 61% 0 in 0 W/m2
21:12 66.2 °F 52.3 °F 29.8 in SW 0.9 mph 1 mph 61% 0 in 0 W/m2
21:17 66 °F 52.7 °F 29.8 in SW 0.9 mph 1 mph 62% 0 in 0 W/m2
21:22 65.8 °F 52.9 °F 29.8 in Calm   1 mph 63% 0 in 0 W/m2
21:27 65.8 °F 52.5 °F 29.8 in Calm     62% 0 in 0 W/m2
21:32 65.8 °F 52.9 °F 29.8 in Calm   1 mph 63% 0 in 0 W/m2
21:37 66 °F 53.1 °F 29.8 in Calm   1 mph 63% 0 in 0 W/m2
21:42 66 °F 53.1 °F 29.8 in Calm     63% 0 in 0 W/m2
21:47 66 °F 53.1 °F 29.8 in Calm     63% 0 in 0 W/m2
21:52 66.2 °F 53.2 °F 29.8 in SW 0.9 mph 1 mph 63% 0 in 0 W/m2
21:57 66.4 °F 53.8 °F 29.8 in SW 0.9 mph 1 mph 64% 0 in 0 W/m2
22:02 66.6 °F 53.1 °F 29.8 in Calm   1 mph 62% 0 in 0 W/m2
22:07 66.7 °F 53.2 °F 29.7 in Calm   1 mph 62% 0 in 0 W/m2
22:12 66.9 °F 53.4 °F 29.7 in WSW 0.9 mph 1 mph 62% 0 in 0 W/m2
22:17 66.9 °F 53.4 °F 29.7 in Calm   2 mph 62% 0 in 0 W/m2
22:22 67.1 °F 53.6 °F 29.7 in SSW 0.9 mph 2 mph 62% 0 in 0 W/m2
22:27 66.9 °F 53.4 °F 29.7 in Calm     62% 0 in 0 W/m2
22:32 66.9 °F 53.4 °F 29.7 in SSW 0.9 mph 1 mph 62% 0 in 0 W/m2
22:37 66.9 °F 53.4 °F 29.7 in Calm     62% 0 in 0 W/m2
22:42 66.9 °F 54 °F 29.7 in Calm   1 mph 63% 0 in 0 W/m2
22:47 66.9 °F 54.9 °F 29.7 in South 0.9 mph 1 mph 65% 0 in 0 W/m2
22:52 66.7 °F 55.4 °F 29.7 in South 0.9 mph 2 mph 67% 0 in 0 W/m2
22:57 66.6 °F 56.5 °F 29.7 in Calm   1 mph 70% 0 in 0 W/m2
23:02 66.4 °F 57 °F 29.7 in Calm     72% 0 in 0 W/m2
23:07 65.8 °F 57 °F 29.7 in SE 2 mph 3 mph 73% 0 in 0 W/m2
23:12 65.5 °F 56.7 °F 29.7 in Calm   4 mph 73% 0 in 0 W/m2
23:17 65.3 °F 56.1 °F 29.7 in SW 2 mph 4 mph 72% 0 in 0 W/m2
23:22 65.5 °F 55.8 °F 29.7 in South 2 mph 5 mph 71% 0 in 0 W/m2
23:27 65.8 °F 56.1 °F 29.7 in SSW 2 mph 2 mph 71% 0 in 0 W/m2
23:32 66.7 °F 55.8 °F 29.7 in Calm   2 mph 68% 0 in 0 W/m2
23:37 67.5 °F 54.9 °F 29.7 in ENE 0.9 mph 2 mph 64% 0 in 0 W/m2
23:42 68.4 °F 54.9 °F 29.7 in Calm   2 mph 62% 0 in 0 W/m2
23:47 68.7 °F 55.2 °F 29.7 in Calm   2 mph 62% 0 in 0 W/m2
23:52 69.1 °F 55 °F 29.7 in ENE 2.9 mph 3 mph 61% 0 in 0 W/m2
23:57 69.3 °F 54.9 °F 29.7 in ENE 0.9 mph 2 mph 60% 0 in 0 W/m2
Juneau County Weather
Compliments of Weather Underground - 4 mb